Mar del Plata, Argentina

5:51 PM America en Diciembre 13, 2018 (GMT +0000)
Mar Del Plata International

Tiempo Historia de SAZM - Agosto, 2018

Change the Weather History Date:

Viernes, Agosto 10, 2018

  Actual Average Record
Temperature  
Temperatura media 48 ° F -  
Temperatura máxima 53 ° F 59 ° F 75 ° F (2002)
Temperatura mínima 44 ° F 40 ° F 28 ° F (2013)
Degree Days  
Grados día de calefacción 16    
Moisture  
Punto de rocío 48 ° F    
Average Humidity 93    
Maximum Humidity 100    
Minimum Humidity 58    
Precipitación  
Precipitación 0.00 pul 0.08 pul - ()
Presión al nivel del mar  
Presión al nivel del mar 30.18 pul    
Viento  
Velocidad del viento 10 mph ()    
Velocidad máxima del viento 15 mph    
Max Gust Speed -    
Visibilidad 3.2 Millas    
Eventos Niebla , Lluvia    
Averages and records for this station are not official NWS values.
T = Trace of Precipitation, MM = Missing Value Source: Averaged Metar Reports

Daily Weather History Graph

Daily Weather History Graph

Search for Another Location

Airport or City:

Astronomía

Aug. 10, 2018 Salida Puesta
Hora real 7:41 AM -03 6:10 PM -03
Crepúsculo civil 7:13 AM -03 6:38 PM -03
Crepúsculo náutico 6:42 AM -03 7:09 PM -03
Crepúsculo astronómico 6:11 AM -03 7:39 PM -03
Luna 7:02 AM -03 (8/10) 5:23 PM -03 (8/10)
Horas de luz 11h 24m
Horas de luz
10h 29m
Creciente menguante, 1% of the Moon is Illuminated
Ago 10
Creciente menguante
Ago 11
Nueva
Ago 18
Cuarto creciente
Ago 26
Luna llena
Sep 2
Cuarto menguante

Hourly Weather History & Observations

Hora (-03) Temp. Vientos helados Punto de rocío Humedad Presión Visibilidad Wind Dir Velocidad del viento Velocidad de ráfagas Precip Eventos Condiciones
12:00 AM 47 ° F - 37 ° F 58% 30.23 pul 6 mi Sur 13.8 mph - -   Nublado
12:00 AM 46.4 ° F 40.4 ° F 37.4 ° F 71% 30.21 pul 6.2 mi Sur 13.8 mph - N/A   Nublado
1:00 AM 48.2 ° F - 39.2 ° F 71% 30.21 pul 6.2 mi Sur 15.0 mph - N/A   Nublado
2:00 AM 48.2 ° F - 41.0 ° F 76% 30.21 pul 6.2 mi SSO 11.5 mph - N/A   Muy nublado
3:00 AM 46 ° F - 41 ° F 75% 30.19 pul 6 mi SSO 11.5 mph - -   Muy nublado
3:00 AM 46.4 ° F 41.1 ° F 41.0 ° F 81% 30.18 pul 6.2 mi SSO 11.5 mph - N/A   Muy nublado
4:00 AM 46.4 ° F 41.1 ° F 42.8 ° F 87% 30.15 pul 6.2 mi SSO 11.5 mph - N/A   Muy nublado
5:00 AM 46.4 ° F 41.1 ° F 42.8 ° F 87% 30.15 pul 5.0 mi SSO 11.5 mph - N/A   Nublado
5:48 AM 46.4 ° F 41.1 ° F 46.4 ° F 100% 30.15 pul 1.9 mi SSO 11.5 mph - N/A   Llovizna
6:00 AM 47 ° F - 46 ° F 95% 30.17 pul 2 mi SSO 11.5 mph - - Lluvia Llovizna débil
6:00 AM 46.4 ° F 41.1 ° F 46.4 ° F 100% 30.15 pul 2.5 mi SSO 11.5 mph - N/A   Llovizna débil
7:00 AM 48.2 ° F - 48.2 ° F 100% 30.18 pul 1.2 mi SSO 11.5 mph - N/A   Llovizna débil
7:38 AM 48.2 ° F - 48.2 ° F 100% 30.18 pul 0.5 mi SSO 11.5 mph - N/A Niebla Llovizna débil
8:00 AM 48.2 ° F - 48.2 ° F 100% 30.18 pul 0.5 mi SSO 11.5 mph - N/A Niebla Llovizna
8:24 AM 48.2 ° F - 48.2 ° F 100% 30.18 pul 1.6 mi Sur 11.5 mph - N/A   Llovizna débil
8:36 AM 50.0 ° F - 48.2 ° F 94% 30.18 pul 3.1 mi Sur 10.4 mph - N/A   Nublado
9:00 AM 49 ° F - 49 ° F 99% 30.18 pul 2 mi SSE 11.5 mph - - Niebla Poca niebla
9:00 AM 50.0 ° F - 48.2 ° F 94% 30.15 pul 1.9 mi SSE 12.7 mph - N/A   Nublado
9:08 AM 50.0 ° F - 48.2 ° F 94% 30.15 pul 0.9 mi SSE 12.7 mph - N/A   Nublado
9:16 AM 50.0 ° F - 48.2 ° F 94% 30.15 pul 0.6 mi SSE 12.7 mph - N/A   Nublado
10:00 AM 50.0 ° F - 50.0 ° F 100% 30.18 pul 0.8 mi SSO 8.1 mph - N/A   Nublado
11:00 AM 50.0 ° F - 50.0 ° F 100% 30.18 pul 0.9 mi SSO 8.1 mph - N/A   Llovizna
11:28 AM 51.8 ° F - 50.0 ° F 94% 30.18 pul 1.4 mi SSO 8.1 mph - N/A   Llovizna débil
11:32 AM 51.8 ° F - 50.0 ° F 94% 30.18 pul 0.7 mi SSO 8.1 mph - N/A   Llovizna
12:00 PM 51 ° F - 51 ° F 99% 30.22 pul 1 mi SSO 6.9 mph - - Lluvia Llovizna
12:00 PM 51.8 ° F - 50.0 ° F 94% 30.21 pul 0.7 mi SSO 6.9 mph - N/A   Llovizna
12:33 PM 51.8 ° F - 51.8 ° F 100% 30.21 pul 1.2 mi SO 9.2 mph - N/A   Nublado
1:00 PM 53.6 ° F - 51.8 ° F 94% 29.92 pul 1.1 mi SSO 9.2 mph - N/A   Llovizna
1:13 PM 53.6 ° F - 51.8 ° F 94% 30.21 pul 4.3 mi SSO 9.2 mph - N/A   Muy nublado
2:00 PM 53.6 ° F - 51.8 ° F 94% 30.18 pul 6.2 mi SSO 10.4 mph - N/A   Nublado
3:00 PM 53 ° F - 51 ° F 91% 30.19 pul 6 mi SSO 8.1 mph - -   Parcialmente nublado
3:00 PM 53.6 ° F - 51.8 ° F 94% 30.18 pul 6.2 mi SSO 8.1 mph - N/A   Nublado
4:00 PM 51.8 ° F - 51.8 ° F 100% 30.15 pul 5.0 mi SSO 9.2 mph - N/A   Llovizna débil
5:00 PM 51.8 ° F - 50.0 ° F 94% 30.15 pul 5.6 mi Sur 9.2 mph - N/A   Nublado
6:00 PM 51 ° F - 50 ° F 96% 30.20 pul 3 mi SSO 9.2 mph - - Lluvia Llovizna débil
6:00 PM 51.8 ° F - 50.0 ° F 94% 30.18 pul 2.8 mi Sur 9.2 mph - N/A   Llovizna débil
6:10 PM 50.0 ° F - 50.0 ° F 100% 30.18 pul 1.2 mi SSO 9.2 mph - N/A   Llovizna
7:00 PM 50.0 ° F - 50.0 ° F 100% 30.21 pul 5.6 mi SSO 8.1 mph - N/A   Nublado
8:00 PM 50.0 ° F - 50.0 ° F 100% 30.21 pul 5.6 mi Sur 6.9 mph - N/A   Nublado
9:00 PM 50 ° F - 49 ° F 96% 30.22 pul 4 mi Sur 5.8 mph - -   Neblina
9:00 PM 50.0 ° F - 50.0 ° F 100% 30.21 pul 4.3 mi Sur 6.9 mph - N/A   Nublado
10:00 PM 50.0 ° F - 50.0 ° F 100% 30.18 pul 4.3 mi SSE 5.8 mph - N/A   Nublado
11:00 PM 50.0 ° F - 50.0 ° F 100% 30.18 pul 0.4 mi Sur 3.5 mph - N/A Niebla Niebla